Temp
5 5 6 7 6 7 10 12 13 12 13 13 13 13 14 13 13 13 12 12 13 14
5 5 5 5 5 6 7 10 12 12 12 14 13 13 13 13 13 13 13 12 13 14
2 3 3 4 5 7 7 9 12 12 11 13 13 13 13 13 13 13 12 12 13 13
1 2 3 3 5 7 7 8 11 13 12 12 12 13 13 13 14 13 13 12 13 13
0 2 3 4 7 8 9 10 10 12 11 12 13 13 12 13 13 13 13 12 13 13
0 2 3 4 6 8 9 9 10 11 11 12 13 12 12 12 12 13 13 12 13 14
-0 -0 1 4 4 6 7 9 11 11 11 12 12 13 11 11 12 12 12 12 13 12
-1 -1 1 2 3 6 6 7 7 10 10 11 11 11 11 11 11 11 11 11 11 11
-2 -1 -0 0 2 3 5 7 8 10 10 10 11 11 11 11 11 11 11 11 11 10
-4 -3 -2 -1 0 1 1 3 3 6 7 8 9 10 11 11 11 11 10 10 10 10
-5 -5 -4 -2 -2 -1 -0 1 0 1 3 5 5 7 10 9 10 10 9 9 8 9
-5 -4 -5 -5 -4 -3 -2 -2 -1 -1 0 1 -1 1 2 6 2 7 6 6 6 6
-4 -4 -5 -4 -5 -4 -4 -3 -3 -3 -2 -2 -2 -1 0 2 0 -0 1 0 0 0
-4 -4 -4 -4 -4 -4 -4 -3 -3 -3 -4 -4 -4 -3 -2 -1 -0 -0 -0 -1 -1 -2
Height
1412 1409 1405 1402 1400 1398 1398 1399 1401 1406 1407 1396 1405 1415 1423 1427 1427 1429 1433 1437 1440 1444
1405 1401 1396 1392 1389 1387 1386 1386 1390 1394 1397 1397 1400 1405 1410 1416 1418 1422 1425 1432 1436 1438
1397 1392 1386 1382 1377 1375 1373 1374 1377 1382 1387 1389 1390 1396 1399 1404 1409 1414 1418 1424 1429 1432
1389 1383 1377 1372 1368 1365 1362 1361 1362 1368 1375 1378 1381 1385 1389 1393 1399 1405 1411 1415 1419 1423
1383 1376 1369 1363 1359 1356 1352 1350 1351 1355 1362 1367 1369 1375 1379 1384 1390 1397 1405 1407 1411 1414
1378 1370 1363 1358 1352 1349 1346 1345 1345 1349 1352 1355 1361 1368 1371 1375 1382 1389 1394 1398 1400 1407
1377 1369 1359 1355 1350 1344 1337 1334 1334 1340 1343 1348 1353 1358 1364 1369 1375 1382 1387 1391 1398 1403
1376 1368 1360 1354 1348 1342 1334 1331 1330 1322 1327 1340 1344 1350 1357 1363 1369 1375 1379 1384 1393 1397
1377 1370 1364 1357 1350 1342 1337 1330 1327 1327 1333 1337 1340 1346 1353 1359 1365 1366 1370 1377 1386 1390
1383 1376 1369 1363 1354 1347 1342 1339 1335 1332 1336 1339 1342 1346 1349 1353 1358 1362 1367 1373 1381 1384
1391 1384 1377 1370 1363 1356 1350 1347 1348 1343 1342 1342 1344 1347 1347 1351 1354 1358 1362 1367 1371 1375
1398 1391 1385 1379 1374 1369 1363 1359 1356 1355 1351 1350 1355 1353 1356 1352 1355 1351 1357 1361 1369 1372
1407 1401 1396 1391 1386 1383 1378 1374 1371 1366 1364 1366 1368 1366 1364 1361 1376 1352 1362 1360 1372 1374
1416 1411 1406 1402 1399 1395 1391 1387 1384 1382 1381 1381 1381 1378 1376 1373 1377 1371 1374 1378 1378 1382
Wind_Speed
32 34 37 38 39 43 45 48 45 32 42 46 42 39 45 44 47 45 42 43 39 32
33 34 37 39 39 42 46 49 48 39 37 46 43 40 41 50 50 45 44 41 38 34
32 34 36 36 38 42 45 44 48 46 36 45 47 40 38 46 48 47 43 40 45 41
30 32 32 32 31 32 34 40 45 46 42 46 45 39 41 46 47 44 42 38 39 43
26 25 24 23 23 23 16 23 26 41 43 47 46 39 38 46 45 43 40 38 38 36
23 21 20 19 17 20 24 22 22 33 41 46 45 39 35 41 45 43 43 43 41 34
21 19 17 17 17 17 17 25 35 37 37 40 38 35 32 40 40 41 41 41 35 30
21 20 18 17 15 14 8 5 4 27 21 25 29 29 29 31 36 37 38 32 34 33
25 24 23 22 18 18 16 14 10 7 11 20 24 26 28 28 36 39 40 38 38 35
33 32 30 29 27 26 25 18 19 14 10 10 15 24 29 32 39 40 38 37 36 31
37 39 38 37 38 38 36 31 28 24 19 14 8 10 25 33 38 38 33 32 27 26
38 40 42 45 45 45 43 43 42 38 34 31 30 15 12 25 22 32 26 20 19 18
37 39 41 43 45 46 46 46 46 47 45 40 35 31 26 22 18 31 23 19 17 14
33 34 36 38 40 42 43 45 47 47 47 46 45 41 36 32 28 30 29 29 27 23
Wind_Direction
299 295 288 284 278 273 265 252 247 260 245 239 237 237 236 237 238 236 230 227 225 230
301 296 291 287 281 274 269 257 250 240 251 249 249 244 237 235 237 232 229 225 216 230
308 302 296 288 283 277 270 261 245 244 241 242 246 241 238 232 232 231 231 231 218 233
317 309 295 286 279 274 270 262 245 241 233 239 239 237 234 229 227 226 232 232 228 216
325 312 303 291 282 268 287 271 255 240 228 234 233 230 230 227 225 225 228 221 222 223
334 329 335 320 306 278 255 246 247 243 236 229 226 227 231 225 222 227 225 222 221 221
353 356 354 339 342 319 247 252 256 246 234 227 225 223 227 222 224 225 225 217 224 210
11 15 15 13 360 355 18 237 191 203 209 214 216 217 228 223 219 221 203 206 210 206
35 35 34 34 29 38 21 39 84 165 192 210 224 233 229 227 214 205 207 203 204 210
47 47 49 51 51 50 51 33 60 86 129 163 197 211 210 197 205 203 194 200 212 215
54 55 56 57 59 61 60 58 55 59 76 89 87 168 179 177 189 182 182 187 191 202
59 59 60 60 60 62 66 67 65 66 67 66 66 73 119 163 128 166 159 155 166 176
61 63 62 65 65 65 65 66 69 69 67 69 67 69 72 81 65 88 104 99 104 118
59 60 64 65 65 67 67 68 66 66 68 69 66 67 70 75 71 75 83 80 79 80